Regional Weather Roundup
Issued by NWS

Home | Current Version | Previous Version | Graphics & Text | Print | Product List | Glossary On
Versions: 1 2 3 4 5 6 7 8 9 10 11 12 13 14 15 16 17 18 19 20 21 22 23 24 25 26 27 28 29 30 31 32 33 34 35 36 37 38 39 40 41 42 43 44 45 46 47 48 49 50
000
ASUS43 KLSX 252059
RWRMO

WEATHER SUMMARY FOR MISSOURI
NATIONAL WEATHER SERVICE SPRINGFIELD MO
300 PM CST SUN JAN 25 2015

NOTE: "FAIR" INDICATES FEW OR NO CLOUDS BELOW 12,000 FEET WITH NO
       SIGNIFICANT WEATHER AND/OR OBSTRUCTIONS TO VISIBILITY.
       CURRENT SKY AND/OR WEATHER CONDITIONS ARE NOT AVAILABLE FOR
       CHILLICOTHE AND FARMINGTON.

MOZ001>031-035>038-043-044-053-054-252200-
...NORTHERN AND WESTERN MISSOURI...

CITY           SKY/WX    TMP DP  RH WIND       PRES   REMARKS
KANSAS CTY INT CLOUDY    38  33  82 N15       29.93R WCI  29
KANSAS C DTWN  CLOUDY    40  32  73 N16G25    29.92R
LEE`S SUMMIT   CLOUDY    38  32  79 N18G28    29.90R WCI  28
ST JOSEPH      CLOUDY    39  33  79 N18       29.96R WCI  30
CHILLICOTHE      N/A     37  31  78 N14G22    29.90R WCI  28
KIRKSVILLE     CLOUDY    32  30  92 N18G32    29.86R WCI  20

$$
MOZ066>068-077>081-088>096-101>105-252200-
...SOUTHWEST MISSOURI...

CITY           SKY/WX    TMP DP  RH WIND       PRES   REMARKS
SPRINGFIELD    CLOUDY    38  34  85 NW16G22   29.81R WCI  29
JOPLIN         CLOUDY    42  32  67 NW21G33   29.91R

$$
MOZ032>034-039>042-045>050-055>058-069>072-252200-
...CENTRAL MISSOURI...

CITY           SKY/WX    TMP DP  RH WIND       PRES   REMARKS
COLUMBIA       LGT RAIN  37  36  96 N23G29    29.76R FOG     WCI  26
JEFFERSON CITY LGT RAIN  41  37  86 NW24G31   29.75R
ROLLA          CLOUDY    37  34  89 W21G28    29.69R WCI  26
SEDALIA        FLURRIES  38  35  89 N24G30    29.83R WCI  27
OSAGE BEACH    CLOUDY    37  34  87 W7G17     29.76R

$$
MOZ051-052-059>065-252200-
...EAST CENTRAL MISSOURI...

CITY           SKY/WX    TMP DP  RH WIND       PRES   REMARKS
ST LOUIS INTL  LGT RAIN  44  40  85 N14       29.66R
SPIRIT OF STL  LGT RAIN  44  41  89 N12       29.66R
ST CHARLES     CLOUDY    40  38  93 N21G26    29.68R

$$
MOZ072>076-082>087-097>100-106>115-252200-
...SOUTH CENTRAL AND SOUTHEAST MISSOURI...

CITY           SKY/WX    TMP DP  RH WIND       PRES   REMARKS
CAPE GIRARDEAU LGT RAIN  45  44  97 SW8       29.62R
FARMINGTON     CLOUDY    45  37  76 MISG      29.66R
POPLAR BLUFF   CLOUDY    47  42  83 W9        29.64R
WEST PLAINS    CLOUDY    41  33  73 W12G30    29.73R

$$



USA.gov is the U.S. government's official web portal to all federal, state and local government web resources and services.